Weather History for KO69 - October, 2012

Change the Weather History Date:

Monday, October 29, 2012

  Actual Average (KAPC) Record (KAPC)
Temperature  
Mean Temperature 62 °F 56 °F  
Max Temperature 77 °F 70 °F 81 °F (2014)
Min Temperature 46 °F 41 °F 34 °F (2008)
Degree Days  
Heating Degree Days 4    
Month to date heating degree days  
Since 1 July heating degree days  
Cooling Degree Days 0    
Month to date cooling degree days  
Year to date cooling degree days  
Growing Degree Days 12 (Base 50)    
Moisture  
Dew Point 51 °F    
Average Humidity 87    
Maximum Humidity 100    
Minimum Humidity 36    
Precipitation  
Precipitation 0.00 in - 2.41 in (1992)
Month to date precipitation  
Year to date precipitation  
Since 1 July precipitation  
Sea Level Pressure  
Sea Level Pressure 30.08 in    
Wind  
Wind Speed 1 mph (NW)    
Max Wind Speed 12 mph    
Max Gust Speed -    
Visibility 5 miles    
Events      
T = Trace of Precipitation, MM = Missing Value Source: NWS Daily Summary

Daily Weather History Graph

Daily Weather History Graph

Search for Another Location

Airport or City:

Trip Planner

Search our weather history database for the weather conditions in past years. The results will help you decide how hot, cold, wet, or windy it might be!

Date:

Astronomy

Oct. 29, 2012 Rise Set
Actual Time 7:33 AM PDT 6:13 PM PDT
Civil Twilight 7:06 AM PDT 6:40 PM PDT
Nautical Twilight 6:35 AM PDT 7:11 PM PDT
Astronomical Twilight 6:04 AM PDT 7:42 PM PDT
Moon 6:09 PM PDT (10/29) 7:29 AM PDT (10/29)
Length of Visible Light 11h 34m
Length of Day
10h 39m
Full, 100% of the Moon is Illuminated
Oct 29
Full
Oct 29
Full
Nov 6
Last Quarter
Nov 13
New
Nov 20
First Quarter

Hourly Weather History & Observations

Time (PDT) Temp. Dew Point Humidity Pressure Visibility Wind Dir Wind Speed Gust Speed Precip Events Conditions
12:15 AM 51.8 °F 51.8 °F 100% 30.05 in 0.2 mi Calm Calm - N/A   Overcast
12:35 AM 51.8 °F 51.8 °F 100% 30.04 in 0.2 mi Calm Calm - N/A   Overcast
12:55 AM 51.8 °F 51.8 °F 100% 30.05 in 0.2 mi NNW 4.6 mph - N/A   Overcast
1:15 AM 50.0 °F 50.0 °F 100% 30.05 in 0.2 mi Calm Calm - N/A   Overcast
1:55 AM 48.2 °F 48.2 °F 100% 30.06 in 0.2 mi Calm Calm - N/A   Overcast
2:15 AM 48.2 °F 48.2 °F 100% 30.07 in 0.2 mi North 3.5 mph - N/A   Overcast
2:55 AM 48.2 °F 48.2 °F 100% 30.07 in 0.2 mi Calm Calm - N/A   Overcast
3:15 AM 48.2 °F 48.2 °F 100% 30.06 in 0.5 mi Calm Calm - N/A   Overcast
3:35 AM 46.4 °F 46.4 °F 100% 30.06 in 0.2 mi Calm Calm - N/A   Overcast
3:55 AM 46.4 °F 46.4 °F 100% 30.06 in 0.2 mi Calm Calm - N/A   Overcast
4:15 AM 46.4 °F 46.4 °F 100% 30.06 in 0.2 mi Calm Calm - N/A   Overcast
4:35 AM 48.2 °F 48.2 °F 100% 30.06 in 0.5 mi Calm Calm - N/A   Overcast
4:55 AM 48.2 °F 48.2 °F 100% 30.06 in 0.2 mi Calm Calm - N/A   Overcast
5:15 AM 48.2 °F 48.2 °F 100% 30.07 in 0.2 mi Calm Calm - N/A   Overcast
5:35 AM 48.2 °F 48.2 °F 100% 30.07 in 0.2 mi Calm Calm - N/A   Overcast
5:55 AM 48.2 °F 48.2 °F 100% 30.08 in 0.2 mi Calm Calm - N/A   Overcast
6:15 AM 48.2 °F 48.2 °F 100% 30.08 in 0.2 mi Calm Calm - N/A   Overcast
6:55 AM 48.2 °F 48.2 °F 100% 30.08 in 0.2 mi Calm Calm - N/A   Overcast
7:15 AM 48.2 °F 48.2 °F 100% 30.08 in 0.2 mi Calm Calm - N/A   Overcast
7:35 AM 48.2 °F 48.2 °F 100% 30.09 in 0.2 mi Calm Calm - N/A   Overcast
7:55 AM 48.2 °F 48.2 °F 100% 30.10 in 0.2 mi Calm Calm - N/A   Overcast
8:15 AM 48.2 °F 48.2 °F 100% 30.11 in 0.2 mi Calm Calm - N/A   Overcast
8:35 AM 48.2 °F 48.2 °F 100% 30.11 in 0.2 mi Calm Calm - N/A   Overcast
8:55 AM 48.2 °F 48.2 °F 100% 30.12 in 0.2 mi Calm Calm - N/A   Overcast
9:15 AM 48.2 °F 48.2 °F 100% 30.12 in 0.2 mi Calm Calm - N/A   Overcast
9:35 AM 50.0 °F 50.0 °F 100% 30.13 in 0.2 mi ESE 3.5 mph - N/A   Overcast
9:55 AM 50.0 °F 50.0 °F 100% 30.13 in 0.2 mi Calm Calm - N/A   Overcast
10:15 AM 51.8 °F 51.8 °F 100% 30.13 in 0.2 mi Calm Calm - N/A   Overcast
10:35 AM 53.6 °F 53.6 °F 100% 30.13 in 1.5 mi Calm Calm - N/A   Overcast
10:55 AM 53.6 °F 53.6 °F 100% 30.13 in 1.8 mi Calm Calm - N/A   Overcast
11:15 AM 55.4 °F 55.4 °F 100% 30.13 in 7.0 mi Calm Calm - N/A   Mostly Cloudy
11:35 AM 57.2 °F 57.2 °F 100% 30.13 in 10.0 mi Calm Calm - N/A   Partly Cloudy
11:55 AM 60.8 °F 57.2 °F 88% 30.13 in 10.0 mi Calm Calm - N/A   Clear
12:15 PM 64.4 °F 55.4 °F 73% 30.11 in 10.0 mi Calm Calm - N/A   Clear
12:35 PM 66.2 °F 55.4 °F 68% 30.11 in 10.0 mi West 4.6 mph - N/A   Clear
12:55 PM 68.0 °F 55.4 °F 64% 30.10 in 10.0 mi WNW 3.5 mph - N/A   Clear
1:15 PM 68.0 °F 55.4 °F 64% 30.09 in 10.0 mi SW 3.5 mph - N/A   Clear
1:35 PM 71.6 °F 53.6 °F 53% 30.08 in 10.0 mi Calm Calm - N/A   Clear
1:55 PM 71.6 °F 53.6 °F 53% 30.07 in 10.0 mi Calm Calm - N/A   Clear
2:15 PM 73.4 °F 51.8 °F 47% 30.07 in 10.0 mi Calm Calm - N/A   Clear
2:55 PM 75.2 °F 51.8 °F 44% 30.05 in 10.0 mi NW 3.5 mph - N/A   Clear
3:15 PM 75.2 °F 50.0 °F 41% 30.05 in 10.0 mi Calm Calm - N/A   Clear
3:35 PM 75.2 °F 50.0 °F 41% 30.05 in 10.0 mi Calm Calm - N/A   Clear
3:55 PM 75.2 °F 48.2 °F 38% 30.04 in 10.0 mi Calm Calm - N/A   Clear
4:15 PM 77.0 °F 48.2 °F 36% 30.04 in 10.0 mi Calm Calm - N/A   Clear
4:35 PM 75.2 °F 50.0 °F 41% 30.04 in 10.0 mi West 11.5 mph - N/A   Clear
4:55 PM 69.8 °F 55.4 °F 60% 30.05 in 10.0 mi West 10.4 mph - N/A   Clear
5:15 PM 68.0 °F 55.4 °F 64% 30.05 in 10.0 mi WNW 9.2 mph - N/A   Clear
5:35 PM 66.2 °F 55.4 °F 68% 30.05 in 10.0 mi WNW 9.2 mph - N/A   Clear
5:55 PM 64.4 °F 55.4 °F 73% 30.05 in 10.0 mi WNW 4.6 mph - N/A   Clear
6:15 PM 64.4 °F 53.6 °F 68% 30.05 in 10.0 mi WNW 5.8 mph - N/A   Clear
6:35 PM 60.8 °F 53.6 °F 77% 30.06 in 10.0 mi WNW 9.2 mph - N/A   Clear
6:55 PM 57.2 °F 53.6 °F 88% 30.07 in 10.0 mi NNW 4.6 mph - N/A   Clear
7:15 PM 55.4 °F 53.6 °F 94% 30.08 in 10.0 mi NW 4.6 mph - N/A   Clear
7:35 PM 55.4 °F 53.6 °F 94% 30.08 in 10.0 mi NW 3.5 mph - N/A   Clear
7:55 PM 55.4 °F 53.6 °F 94% 30.08 in 10.0 mi NW 3.5 mph - N/A   Clear
8:15 PM 53.6 °F 53.6 °F 100% 30.08 in 10.0 mi NNW 4.6 mph - N/A   Clear
8:35 PM 53.6 °F 53.6 °F 100% 30.07 in 8.0 mi North 3.5 mph - N/A   Clear
8:55 PM 53.6 °F 53.6 °F 100% 30.07 in 10.0 mi North 3.5 mph - N/A   Clear
9:15 PM 51.8 °F 51.8 °F 100% 30.07 in 10.0 mi North 3.5 mph - N/A   Clear
9:35 PM 51.8 °F 51.8 °F 100% 30.07 in 10.0 mi Calm Calm - N/A   Clear
9:55 PM 50.0 °F 50.0 °F 100% 30.07 in 10.0 mi NW 3.5 mph - N/A   Partly Cloudy
10:15 PM 51.8 °F 51.8 °F 100% 30.07 in 0.2 mi NW 3.5 mph - N/A   Overcast
10:35 PM 53.6 °F 53.6 °F 100% 30.08 in 0.2 mi Calm Calm - N/A   Overcast
10:55 PM 53.6 °F 53.6 °F 100% 30.08 in 0.2 mi NNW 3.5 mph - N/A   Overcast
11:15 PM 53.6 °F 53.6 °F 100% 30.08 in 0.2 mi NNW 3.5 mph - N/A   Overcast
11:35 PM 53.6 °F 53.6 °F 100% 30.07 in 0.2 mi Calm Calm - N/A   Overcast
11:55 PM 53.6 °F 53.6 °F 100% 30.07 in 0.2 mi Calm Calm - N/A   Overcast